CW6242 Weather Reports


time (UTC)temp
C
wind
direction
speed
KPH
gust
KPH
rain 1hr
cm
rain 24hr
cm
rain mn
cm
humidity
%
barometer
mb
20260507142011 22 0.0 0.0 0.00 0.00 0.00 49 1007.7
20260507141012 22 0.0 4.8 0.00 0.00 0.00 51 1007.7
20260507140011 22 0.0 8.0 0.00 0.00 0.00 54 1007.7
20260507135011 22 0.0 0.0 0.00 0.00 0.00 57 1008.1
20260507134031 22 0.0 0.0 0.00 0.00 0.00 58 1008.0
20260507133051 22 0.0 0.0 0.00 0.00 0.00 57 1008.1
20260507132011 22 0.0 0.0 0.00 0.00 0.00 58 1008.5
20260507131031 21 0.0 0.0 0.00 0.00 0.00 57 1008.2
20260507130011 21 0.0 0.0 0.00 0.00 0.00 56 1008.3
20260507125011 22 0.0 0.0 0.00 0.00 0.00 54 1008.5
20260507124031 22 0.0 0.0 0.00 0.00 0.00 58 1008.7
20260507123010 22 158 1.6 16.1 0.00 0.00 0.00 56 1008.7
20260507122010 22 135 3.2 14.5 0.00 0.00 0.00 52 1008.8
20260507121011 22 158 1.6 19.3 0.00 0.00 0.00 50 1008.7
20260507120031 22 0 4.8 19.3 0.00 0.00 0.00 47 1008.4
20260507115011 22 0 4.8 19.3 0.00 0.00 0.00 46 1008.4
20260507114012 22 180 6.4 25.7 0.00 0.00 0.00 49 1008.6
20260507113013 22 158 9.7 27.4 0.00 0.00 0.00 46 1008.6
20260507112012 23 0 8.0 40.2 0.00 0.00 0.00 39 1008.5
20260507111013 22 0 8.0 25.7 0.00 0.00 0.00 39 1008.9
20260507110012 22 135 14.5 40.2 0.00 0.00 0.00 39 1008.9
20260507105012 22 0 17.7 40.2 0.00 0.00 0.00 37 1009.2
20260507104013 22 0 17.7 40.2 0.00 0.00 0.00 36 1009.1
20260507103032 22 0 19.3 37.0 0.00 0.00 0.00 35 1009.1
20260507102032 22 0 19.3 43.5 0.00 0.00 0.00 33 1008.9
20260507101013 22 0 19.3 43.5 0.00 0.00 0.00 33 1008.9
20260507100012 22 0 24.1 51.5 0.00 0.00 0.00 32 1008.7
20260507095012 22 0 19.3 41.8 0.00 0.00 0.00 32 1008.9
20260507094013 22 0 17.7 41.8 0.00 0.00 0.00 31 1009.0
20260507093012 22 0 14.5 49.9 0.00 0.00 0.00 35 1009.2
20260507092012 21 158 4.8 29.0 0.00 0.00 0.00 53 1009.8
20260507091012 21 45 4.8 16.1 0.00 0.00 0.00 57 1009.6
20260507090012 21 0.0 8.0 0.00 0.00 0.00 54 1009.7
20260507085032 20 315 4.8 14.5 0.00 0.00 0.00 65 1009.9
20260507084012 20 0.0 6.4 0.00 0.00 0.00 71 1009.8
20260507083012 20 270 1.6 9.7 0.00 0.00 0.00 72 1009.8
20260507082032 20 270 3.2 16.1 0.00 0.00 0.00 69 1009.9
20260507081012 20 0.0 0.0 0.00 0.00 0.00 67 1009.9
20260507080014 21 180 3.2 12.9 0.00 0.00 0.00 65 1009.9
20260507075014 21 180 9.7 32.2 0.00 0.00 0.00 47 1009.8
20260507074014 21 0 11.3 32.2 0.00 0.00 0.00 34 1009.6
20260507073034 21 0 14.5 37.0 0.00 0.00 0.00 31 1009.2
20260507072014 21 0 19.3 43.5 0.00 0.00 0.00 31 1009.3
20260507071014 20 0 22.5 59.5 0.00 0.00 0.00 30 1009.2
20260507070014 21 0 17.7 43.5 0.00 0.00 0.00 30 1009.3
20260507065014 21 0 19.3 41.8 0.00 0.00 0.00 29 1009.3
20260507064014 20 0 17.7 40.2 0.00 0.00 0.00 29 1009.6
20260507063034 20 0 16.1 30.6 0.00 0.00 0.00 31 1009.7
20260507062014 20 0 14.5 29.0 0.00 0.00 0.00 31 1009.9
20260507061014 20 0 11.3 27.4 0.00 0.00 0.00 31 1010.0
20260507060014 20 0 14.5 30.6 0.00 0.00 0.00 34 1009.9
20260507055014 20 0 16.1 37.0 0.00 0.00 0.00 30 1009.8
20260507054034 20 0 16.1 35.4 0.00 0.00 0.00 30 1009.7
20260507053014 20 0 22.5 45.1 0.00 0.00 0.00 30 1009.7
20260507052014 19 0 25.7 45.1 0.00 0.00 0.00 30 1009.4
20260507051013 18 0 19.3 37.0 0.00 0.00 0.00 31 1009.6
20260507050014 18 0 17.7 33.8 0.00 0.00 0.00 33 1009.7
20260507045014 18 0 19.3 33.8 0.00 0.00 0.00 32 1009.6
20260507044013 18 0 22.5 33.8 0.00 0.00 0.00 33 1009.6
20260507043014 19 0 24.1 41.8 0.00 0.00 0.00 32 1009.6
20260507042015 19 0 24.1 41.8 0.00 0.00 0.00 32 1009.8
20260507041015 19 0 19.3 41.8 0.00 0.00 0.00 31 1009.7
20260507040016 18 0 12.9 38.6 0.00 0.00 0.00 33 1010.0
20260507035015 18 90 3.2 19.3 0.00 0.00 0.00 38 1010.5
20260507034016 18 135 4.8 17.7 0.00 0.00 0.00 38 1010.5
20260507033016 17 0.0 9.7 0.00 0.00 0.00 45 1010.4
20260507032015 16 90 4.8 12.9 0.00 0.00 0.00 55 1010.4
20260507031016 16 0 12.9 22.5 0.00 0.00 0.00 60 1010.6
20260507030015 15 0 8.0 24.1 0.00 0.00 0.00 79 1010.6
20260507025016 15 45 1.6 11.3 0.00 0.00 0.00 85 1011.0
20260507024016 15 0.0 4.8 0.00 0.00 0.00 86 1010.9
20260507023015 15 113 1.6 11.3 0.00 0.00 0.00 87 1010.8
20260507022015 15 158 4.8 11.3 0.00 0.00 0.00 88 1011.0
20260507021156 15 180 1.6 9.7 0.00 0.00 0.00 89 1011.2
20260507020035 14 203 6.4 11.3 0.00 0.00 0.00 88 1011.1
20260507015036 15 0.0 0.0 0.00 0.00 0.00 90 1011.1
20260507014015 15 0.0 0.0 0.00 0.00 0.00 89 1011.1
20260507013035 15 0.0 0.0 0.00 0.00 0.00 89 1011.0
20260507012015 15 0.0 0.0 0.00 0.00 0.00 90 1010.9
20260507011015 15 0.0 0.0 0.00 0.00 0.00 89 1011.1
20260507010015 15 0.0 0.0 0.00 0.00 0.00 89 1011.4
20260507005015 15 225 6.4 16.1 0.00 0.00 0.00 88 1011.5
20260507004017 15 203 8.0 16.1 0.00 0.00 0.00 87 1011.4
20260507003017 15 0.0 1.6 0.00 0.00 0.00 87 1011.5
20260507002016 16 225 1.6 8.0 0.00 0.00 0.00 87 1011.8
20260507001016 16 0.0 0.0 0.00 0.00 0.00 86 1011.9
20260507000016 16 0.0 4.8 0.00 0.00 0.00 83 1011.8
20260506235016 16 0.0 9.7 0.00 0.00 0.00 81 1011.7
20260506234016 16 225 6.4 14.5 0.00 0.00 0.00 79 1011.8
20260506233036 16 225 6.4 17.7 0.00 0.00 0.00 77 1011.7
20260506232006 16 225 9.7 17.7 0.00 0.00 0.00 76 1011.9
20260506231006 16 225 6.4 17.7 0.00 0.00 0.00 76 1011.9
20260506230006 16 225 1.6 19.3 0.00 0.00 0.00 73 1012.3
20260506225006 16 225 3.2 17.7 0.00 0.00 0.00 70 1012.4
20260506224006 17 0.0 0.0 0.00 0.00 0.00 67 1012.4
20260506223008 17 0.0 0.0 0.00 0.00 0.00 65 1012.2
20260506222008 17 0.0 0.0 0.00 0.00 0.00 65 1012.4
20260506221008 17 0.0 0.0 0.00 0.00 0.00 66 1012.4
20260506220008 17 0.0 0.0 0.00 0.00 0.00 66 1012.4
20260506215027 17 0.0 0.0 0.00 0.00 0.00 67 1012.5
20260506214007 17 0.0 0.0 0.00 0.00 0.00 67 1012.6
20260506213007 17 0.0 0.0 0.00 0.00 0.00 67 1012.6
20260506212007 17 0.0 0.0 0.00 0.00 0.00 67 1012.5
20260506211007 17 0.0 0.0 0.00 0.00 0.00 66 1012.5
20260506210007 17 0.0 0.0 0.00 0.00 0.00 65 1012.5
20260506205027 17 0.0 0.0 0.00 0.00 0.00 64 1012.4
20260506204007 18 0.0 0.0 0.00 0.00 0.00 61 1012.3
20260506203027 18 0.0 1.6 0.00 0.00 0.00 62 1012.3
20260506202009 18 0.0 0.0 0.00 0.00 0.00 59 1012.3
20260506201008 18 0.0 0.0 0.00 0.00 0.00 57 1012.1
20260506200008 18 0.0 0.0 0.00 0.00 0.00 59 1011.6
20260506195008 18 0.0 11.3 0.00 0.00 0.00 62 1011.5
20260506194008 17 0.0 14.5 0.00 0.00 0.00 64 1011.2
20260506193008 18 203 1.6 14.5 0.00 0.00 0.00 64 1011.1
20260506192008 18 0.0 3.2 0.00 0.00 0.00 65 1012.2
20260506191008 18 45 1.6 14.5 0.00 0.00 0.00 60 1011.8
20260506190008 18 0 4.8 22.5 0.00 0.00 0.00 60 1011.1
20260506185008 18 113 3.2 16.1 0.00 0.00 0.00 58 1010.7
20260506184007 18 0.0 0.0 0.00 0.00 0.00 57 1011.0
20260506183050 18 0.0 0.0 0.00 0.00 0.00 58 1011.0
20260506182009 18 0.0 0.0 0.00 0.00 0.00 58 1011.0
20260506181010 18 0.0 0.0 0.00 0.00 0.00 59 1011.2
20260506180009 18 0.0 0.0 0.00 0.00 0.00 61 1011.4
20260506175009 17 0.0 0.0 0.00 0.00 0.00 65 1011.6
20260506174009 18 0.0 0.0 0.00 0.00 0.00 64 1011.7
20260506173110 18 0.0 0.0 0.00 0.00 0.00 59 1011.8
20260506172009 19 135 1.6 17.7 0.00 0.00 0.00 57 1011.4
20260506171009 19 0.0 4.8 0.00 0.00 0.00 54 1011.3
20260506170009 20 0.0 1.6 0.00 0.00 0.00 53 1011.2
20260506165009 19 0.0 0.0 0.00 0.00 0.00 52 1011.3
20260506164029 18 0.0 0.0 0.00 0.00 0.00 60 1011.1
20260506163010 18 0.0 0.0 0.00 0.00 0.00 61 1011.3
20260506162030 18 0.0 0.0 0.00 0.00 0.00 64 1011.5
20260506161009 18 0.0 0.0 0.00 0.00 0.00 64 1011.9
20260506160030 20 0.0 0.0 0.00 0.00 0.00 60 1012.3
20260506155009 21 0.0 0.0 0.00 0.00 0.00 55 1012.4
20260506154009 21 0.0 0.0 0.00 0.00 0.00 50 1012.5
20260506153009 21 0.0 0.0 0.00 0.00 0.00 51 1012.6
20260506152030 21 0.0 4.8 0.00 0.00 0.00 51 1012.6
20260506151009 20 0.0 4.8 0.00 0.00 0.00 51 1012.6
20260506150009 21 0.0 0.0 0.00 0.00 0.00 54 1012.7
20260506145011 21 0.0 0.0 0.00 0.00 0.00 49 1012.8
20260506144011 21 0.0 0.0 0.00 0.00 0.00 50 1012.8
20260506143011 21 0.0 0.0 0.00 0.00 0.00 51 1012.7